Beckley, WV

7:28 PM EDT on September 20, 2019 (GMT -0400)
Raleigh County Memorial

Weather History for KBKW - July, 2019

Change the Weather History Date:

Wednesday, July 17, 2019

  Actual Average Record
Temperature  
Mean Temperature 75 °F 71 °F  
Max Temperature 80 °F 80 °F 92 °F (1942)
Min Temperature 69 °F 62 °F 41 °F (1939)
Degree Days  
Heating Degree Days 0 0  
Month to date heating degree days 0 0  
Since 1 June heating degree days 33 39  
Since 1 July heating degree days 0 0  
Cooling Degree Days 10 6  
Month to date cooling degree days 175 102  
Year to date cooling degree days 401 254  
Since 1 June cooling degree days 281 213  
Growing Degree Days 25 (Base 50)    
Moisture  
Dew Point 67 °F    
Average Humidity 82    
Maximum Humidity 97    
Minimum Humidity 67    
Precipitation  
Precipitation 0.36 in 0.17 in 1.52 in (1940)
Month to date precipitation 2.80 2.71  
Year to date precipitation 25.69 23.87  
Sea Level Pressure  
Sea Level Pressure 30.03 in    
Wind  
Wind Speed 9 mph (SW)    
Max Wind Speed 20 mph    
Max Gust Speed 29 mph    
Visibility 9 miles    
Events Rain    
T = Trace of Precipitation, MM = Missing Value Source: NWS Daily Summary

Daily Weather History Graph

Daily Weather History Graph

Search for Another Location

Airport or City:

Astronomy

Jul. 17, 2019 Rise Set
Actual Time 6:15 AM EDT 8:45 PM EDT
Civil Twilight 5:45 AM EDT 9:15 PM EDT
Nautical Twilight 5:07 AM EDT 9:52 PM EDT
Astronomical Twilight 4:26 AM EDT 10:34 PM EDT
Moon 9:33 PM EDT (7/17) 6:47 AM EDT (7/17)
Length of Visible Light 15h 29m
Length of Day
14h 29m
Waxing Gibbous, 99% of the Moon is Illuminated
Jul 17
Waxing Gibbous
Jul 24
Last Quarter
Jul 31
New
Aug 7
First Quarter
Aug 15
Full

Hourly Weather History & Observations

Time (EDT) Temp. Dew Point Humidity Pressure Visibility Wind Dir Wind Speed Gust Speed Precip Events Conditions
12:51 AM 73.0 °F 62.1 °F 68% 30.05 in 10.0 mi SE 4.6 mph - N/A   Clear
1:51 AM 71.1 °F 63.0 °F 75% 30.05 in 10.0 mi SSE 4.6 mph - N/A   Clear
2:51 AM 70.0 °F 63.0 °F 78% 30.03 in 10.0 mi SSE 3.5 mph - N/A   Clear
3:51 AM 70.0 °F 63.0 °F 78% 30.01 in 10.0 mi South 4.6 mph - N/A   Clear
4:51 AM 71.1 °F 63.0 °F 75% 30.00 in 10.0 mi South 6.9 mph - N/A   Clear
5:51 AM 71.1 °F 63.0 °F 75% 30.01 in 10.0 mi South 4.6 mph - N/A   Clear
6:51 AM 73.0 °F 64.0 °F 73% 30.00 in 10.0 mi South 4.6 mph - N/A   Scattered Clouds
7:51 AM 75.0 °F 64.9 °F 71% 30.00 in 10.0 mi SSW 8.1 mph - N/A   Clear
8:51 AM 75.9 °F 64.9 °F 69% 30.02 in 10.0 mi SW 5.8 mph - N/A   Clear
9:51 AM 75.9 °F 64.9 °F 69% 30.02 in 10.0 mi SW 12.7 mph - N/A   Scattered Clouds
10:51 AM 78.1 °F 66.0 °F 66% 30.02 in 10.0 mi SW 11.5 mph 21.9 mph N/A   Scattered Clouds
11:51 AM 78.1 °F 66.0 °F 66% 30.02 in 10.0 mi SW 13.8 mph 20.7 mph N/A   Overcast
12:14 PM 78.1 °F 66.0 °F 66% 30.14 in 10.0 mi SW 15.0 mph 20.7 mph N/A   Overcast
12:31 PM 73.0 °F 66.9 °F 81% 30.13 in 5.0 mi WSW 9.2 mph - 0.02 in Rain Light Rain
12:51 PM 73.9 °F 69.1 °F 85% 30.02 in 9.0 mi SW 6.9 mph - 0.04 in Rain Light Rain
1:37 PM 73.9 °F 69.1 °F 85% 30.12 in 10.0 mi SW 12.7 mph - 0.01 in Rain Light Rain
1:51 PM 73.0 °F 68.0 °F 84% 30.02 in 8.0 mi SW 15.0 mph - 0.01 in Rain Light Rain
2:47 PM 73.4 °F 66.2 °F 78% 30.12 in 10.0 mi SW 13.8 mph 25.3 mph 0.01 in Rain Light Rain
2:51 PM 73.0 °F 66.9 °F 81% 30.01 in 10.0 mi SW 13.8 mph 23.0 mph 0.01 in Rain Light Rain
3:08 PM 73.0 °F 68.0 °F 84% 30.10 in 10.0 mi SW 15.0 mph 23.0 mph 0.00 in Rain Light Rain
3:40 PM 72.0 °F 68.0 °F 87% 30.09 in 9.0 mi SW 10.4 mph - 0.05 in Rain Light Rain
3:51 PM 73.9 °F 70.0 °F 87% 29.98 in 10.0 mi SW 9.2 mph - 0.05 in   Mostly Cloudy
4:51 PM 75.9 °F 68.0 °F 76% 29.95 in 10.0 mi WSW 11.5 mph - N/A   Mostly Cloudy
5:51 PM 79.0 °F 66.9 °F 66% 29.94 in 10.0 mi SW 12.7 mph - N/A   Scattered Clouds
6:46 PM 75.2 °F 66.2 °F 73% 30.05 in 10.0 mi SW 10.4 mph - N/A   Mostly Cloudy
6:51 PM 75.9 °F 66.9 °F 74% 29.94 in 10.0 mi SW 13.8 mph - N/A   Overcast
7:02 PM 75.9 °F 66.9 °F 74% 30.05 in 10.0 mi WSW 9.2 mph 17.3 mph 0.00 in Rain Light Rain
7:51 PM 73.0 °F 66.9 °F 81% 29.96 in 1.2 mi West 10.4 mph - 0.04 in Rain Heavy Rain
7:56 PM 72.0 °F 68.0 °F 87% 30.06 in 0.8 mi West 8.1 mph - 0.06 in Rain Heavy Rain
8:11 PM 72.0 °F 69.1 °F 91% 30.06 in 2.0 mi SSW 5.8 mph - 0.21 in Rain Rain
8:19 PM 72.0 °F 68.0 °F 87% 30.06 in 8.0 mi WSW 8.1 mph - 0.21 in Rain Light Rain
8:51 PM 71.1 °F 68.0 °F 90% 29.96 in 10.0 mi West 6.9 mph - 0.21 in   Scattered Clouds
9:51 PM 70.0 °F 68.0 °F 93% 29.97 in 10.0 mi SW 5.8 mph - N/A   Scattered Clouds
10:40 PM 71.1 °F 68.0 °F 90% 30.08 in 10.0 mi WSW 8.1 mph - N/A   Mostly Cloudy
10:51 PM 71.1 °F 68.0 °F 90% 29.97 in 10.0 mi WSW 6.9 mph - N/A   Overcast
11:24 PM 71.1 °F 68.0 °F 90% 30.07 in 10.0 mi SW 6.9 mph - N/A   Mostly Cloudy
11:51 PM 71.1 °F 69.1 °F 93% 29.96 in 10.0 mi WSW 6.9 mph - N/A   Overcast
11:56 PM 71.1 °F 69.1 °F 93% 30.07 in 10.0 mi SW 9.2 mph - N/A   Mostly Cloudy